Regional Weather Roundup
Issued by NWS

Home | Current Version | Previous Version | Graphics & Text | Print | Product List | Glossary On
Versions: 1 2 3 4 5 6 7 8 9 10 11 12 13 14 15 16 17 18 19 20 21 22 23 24 25 26 27
000
ASUS45 KTFX 200110
RWRMT
MONTANA REGIONAL WEATHER ROUNDUP
NATIONAL WEATHER SERVICE GREAT FALLS MT
600 PM MST SUN FEB 19 2017

NOTE: "FAIR" INDICATES FEW OR NO CLOUDS BELOW 12000 FEET WITH NO
SIGNIFICANT WEATHER AND/OR OBSTRUCTIONS TO VISIBILITY.

MTZ001>007-043-200200-
WEST OF THE DIVIDE

CITY           SKY/WX    TMP DP  RH WIND       PRES   REMARKS
KALISPELL      CLOUDY    38  31  76 SE7       29.54R
MISSOULA       CLOUDY    41  31  67 SE9       29.59R
BUTTE          CLOUDY    37  27  67 S8        29.58R WCI  31
MULLAN PASS    CLOUDY    25  24  96 SW8       29.54R WCI  16
ANACONDA         N/A     39  19  45 S7        29.57R
DEER LODGE       N/A     39  28  65 CALM      29.59R
EUREKA           N/A     39  28  65 CALM      29.55R
HAMILTON         N/A     37  28  70 CALM      29.62F
LIBBY            N/A     37  34  87 CALM      29.57R
PLAINS           N/A     39  31  73 CALM      29.65R
RONAN            N/A     38  32  79 W1        29.64
$$

MTZ008-052>055-200200-
SOUTHWEST MONTANA

CITY           SKY/WX    TMP DP  RH WIND       PRES   REMARKS
BOZEMAN        CLOUDY    38  33  82 SW9       29.61R WCI  31
DILLON         CLOUDY    38  27  64 S12       29.59R WCI  30
W YELLOWSTONE  CLOUDY    32  27  80 SW10G23   29.68R FOG     WCI  24
ENNIS          MOCLDY    37  23  56 S18G28    29.65R WCI  27
THREE FORKS      N/A     40   6  24 S7        29.63R
TWIN BRIDGES     N/A     41  26  55 SE5       29.64R
$$

MTZ009-010-012-014-046-048-049-054-200200-
EAST SLOPES AND CENTRAL MONTANA

CITY           SKY/WX    TMP DP  RH WIND       PRES   REMARKS
CUT BANK       PTCLDY    36  22  56 W13       29.51R WCI  27
GREAT FALLS    CLOUDY    37  20  50 SW9       29.54R WCI  30
MALMSTROM AFB  PTCLDY    41  22  46 SW10      29.54R
HELENA         PTCLDY    39  35  86 W5        29.56R
AUGUSTA        MOCLDY    36  22  55 W8        29.53R WCI  30
BOWMANS CRNR   MOCLDY    40  17  39 W6        29.53R
CHOTEAU          N/A     41  27  56 S6        29.55R
CONRAD           N/A     38  29  70 W2        29.59R
POWER            N/A     37  27  66 N9        29.53R WCI  31
RAYNESFORD     MOCLDY    42  24  48 SW6       29.54R
ULM              N/A     40  23  51 MISG      29.54R
$$

MTZ011-013-016-021-045-047-050-051-200200-
NORTH CENTRAL MONTANA

CITY           SKY/WX    TMP DP  RH WIND       PRES   REMARKS
HAVRE          PTCLDY    42  35  76 CALM      29.52R
LEWISTOWN      CLOUDY    40  32  73 CALM      29.55R
N BAR RANCH    MOCLDY    41  28  60 W5        29.59R
CHINOOK          N/A     43  36  75 CALM      29.53R
DENTON         MOCLDY    45  27  48 W8        29.51R
FORT BENTON      N/A    N/A N/A N/A MISG      29.54R
GEYSER         MOCLDY    40  26  56 W9        29.54R
GRASS RANGE    MOCLDY    39  35  86 SW7       29.53R
JUDITH GAP     CLOUDY    39  28  63 W15       29.56R WCI  31
ROY            MOCLDY    43  28  56 MISG      29.53R
STANFORD       MOCLDY    41  22  48 W9        29.55R
WINIFRED         N/A     40  29  63 S6        29.54R
$$

MTZ017>020-022>027-061-062-200200-
NORTHEAST MONTANA

CITY           SKY/WX    TMP DP  RH WIND       PRES   REMARKS
GLASGOW        FOG       33  32  96 S8        29.53R VSB 1/4 WCI  26
JORDAN           N/A     45  36  70 NW8       29.53R
SIDNEY         CLOUDY    36  33  89 N7        29.51R WCI  30
WOLF POINT     CLOUDY    35  33  92 CALM      29.54R FOG
PLENTYWOOD       N/A     34  34 100 NW3       29.53S VSB 1/2
POPLAR           N/A     34  32  93 N3        29.53R
SCOBEY           N/A     33  27  79 CALM      29.51F
$$

MTZ028>42-056>058-200200-
SOUTHCENTRAL AND SOUTHEAST MONTANA

CITY           SKY/WX    TMP DP  RH WIND       PRES   REMARKS
BAKER          CLOUDY    44  35  70 CALM      29.49R
BILLINGS       CLOUDY    47  30  51 N5        29.57R
LIVINGSTON     CLOUDY    35  31  85 W3        29.60R
MILES CITY     CLOUDY    45  36  70 SW8       29.50R
BIG TIMBER     CLEAR     41  30  65 W13       29.60R
FORSYTH          N/A     50  37  62 W5        29.53R
HARLOWTON      MOCLDY    41  28  60 NW5       29.57R
LAUREL           N/A     46  26  46 CALM      29.60R
$$

REGIONAL REPORTS...DAKOTAS

CITY           SKY/WX    TMP DP  RH WIND       PRES   REMARKS
WILLISTON      CLOUDY    34  31  88 NW7       29.51R WCI  28
MINOT          CLOUDY    35  32  88 CALM      29.51R
DICKINSON      CLOUDY    46  36  68 SE6       29.46R
BEACH            N/A    N/A N/A N/A MISG        N/A
CROSBY         CLOUDY    32  32 100 SE9       29.54R FOG     WCI  24
TIOGA          FOG       32  32 100 E6        29.51R VSB 1/4 WCI  26
WATFORD CITY     N/A     32  32 100 CALM      29.50R
BISMARCK       CLOUDY    40  36  86 E6        29.52R
GRAND FORKS    CLOUDY    41  33  73 SE8       29.63R
FARGO          CLOUDY    52  45  77 SE18G25   29.63R
BUFFALO SD       N/A     57  35  43 S8        29.41R
RAPID CITY     CLOUDY    56  33  42 S13       29.52R
$$

REGIONAL REPORTS...WYOMING/IDAHO/WASHINGTON

CITY           SKY/WX    TMP DP  RH WIND       PRES   REMARKS
GILLETTE       CLOUDY    54  32  43 SW16      29.51R
SHERIDAN       CLOUDY    42  33  70 VRB3      29.55R
BUFFALO WY     CLOUDY    50  27  40 N12       29.55R
CODY           CLOUDY    45  22  40 W17G25    29.62R
YELLOWSTONE LA   N/A     27  23  85 VRB6      29.70R WCI  20
IDAHO FALLS    CLOUDY    35  31  85 S15       29.75R WCI  25
SALMON         CLOUDY    39  27  60 W14G21    29.66R WCI  31
BOISE          LGT RAIN  45  36  70 S7        29.72R
SPOKANE        PTCLDY    38  35  89 SE3       29.60R
$$

REGIONAL REPORTS...ALBERTA

CITY           SKY/WX    TMP DP  RH WIND       PRES   REMARKS
EDMONTON       CLOUDY    34  30  86 NW2       29.47R
CALGARY        CLOUDY    32  27  80 NE5       29.47R
LETHBRIDGE     PTCLDY    39  27  60 W13       29.48R WCI  32
MEDICINE HAT   MOCLDY    43  30  61 S9        29.48R
WATERTON GATE    N/A     36  23  60 SW16G24     N/A  WCI  26
CARDSTON         N/A     39  21  48 S7          N/A
MILK RIVER       N/A     39  25  56 W10         N/A
$$

REGIONAL REPORTS...SASKATCHEWAN

CITY           SKY/WX    TMP DP  RH WIND       PRES   REMARKS
SWIFT CURRENT  LGT RAIN  41  37  87 SW7       29.48R
REGINA         CLOUDY    32  30  93 SE12      29.57R WCI  23
SASKATOON      LGT RAIN  36  32  87 SE14      29.54F WCI  27
CYPRESS HILLS    N/A     37  27  65 W5          N/A
ROCKGLEN         N/A     32  34 100 S7          N/A  WCI  26
ASSINIBOIA       N/A     34  34 100 NW3         N/A
$$




USA.gov is the U.S. government's official web portal to all federal, state and local government web resources and services.